Weather Roundup
Issued by NWS Springfield, MO

Home | Current Version | Previous Version | Text Only | Print | Product List | Glossary On
Versions: 1 2 3 4 5 6 7 8 9 10 11 12 13 14 15 16 17 18 19 20 21 22 23 24 25 26 27 28 29 30 31 32 33 34 35 36 37 38 39 40 41 42 43 44 45 46 47 48 49 50
000
NZUS99 KSGF 140159
HRRSGF

HOURLY WEATHER
NATIONAL WEATHER SERVICE SPRINGFIELD MO
900 PM CDT SUN JUL 13 2014

......SGF CWA......

CITY           SKY/WX    TMP DP  RH WIND       PRES   REMARKS
SPRINGFIELD    PTCLDY    81  73  76 N3        29.96S
JOPLIN         PTCLDY    82  73  74 N7        29.97R
WEST PLAINS    MOCLDY    82  71  69 S6        29.98S
ROLLA          MOCLDY    76  70  82 E5        29.94F
OSAGE BEACH    CLOUDY    75  70  83 NE7       29.94S

......SURROUNDING SGF CWA......

CITY           SKY/WX    TMP DP  RH WIND       PRES   REMARKS
CHANUTE        MOCLDY    81  70  69 N5        29.98R
PARSONS        MOCLDY    82  71  69 CALM      29.98R
COFFEYVILLE    MOCLDY    83  71  67 NE8       29.95R
EMPORIA        CLEAR     77  66  68 N6        30.00S
SILOAM SPRINGS PTCLDY    82  66  57 S7        29.99R
HARRISON AR    CLEAR     81  69  67 S3        29.99S
NEAR YELLVILLE   N/A     84  68  58 CALM      29.96S

......KANSAS AND MISSOURI......

CITY           SKY/WX    TMP DP  RH WIND       PRES   REMARKS
KANSAS CTY INT PTCLDY    79  67  66 N3        29.98F
DOWNTOWN KC    CLEAR     81  67  62 N5        29.95F
COLUMBIA       MOCLDY    74  73  97 NW3       29.95F
SEDALIA        MOCLDY    74  72  93 CALM      29.96F
ST JOSEPH      CLEAR     79  72  79 NW3       29.97S
ST LOUIS       RAIN      78  73  84 NW6       29.95R
SPIRIT OF STL  CLOUDY    76  73  91 CALM      29.93R FOG
KIRKSVILLE     CLEAR     74  71  91 CALM      29.96S
WICHITA        PTCLDY    82  67  60 NE3       30.01R
TOPEKA         CLEAR     81  71  71 CALM      29.98S
OLATHE         PTCLDY    80  68  66 N3        29.97F

......TENNESSEE......

CITY           SKY/WX    TMP DP  RH WIND       PRES   REMARKS
MEMPHIS        PTCLDY    85  73  67 SW5       30.00R HX  91
NASHVILLE      PTCLDY    85  71  63 SW5       30.00R HX  90

......ARKANSAS.......

CITY           SKY/WX    TMP DP  RH WIND       PRES   REMARKS
FAYETTEVILLE   CLEAR     81  73  76 SW6       29.98S
FT SMITH       CLEAR     88  73  61 SE3       29.95R HX  95
LITTLE ROCK    PTCLDY    83  74  74 S7        29.98R

......OKLAHOMA.......

CITY           SKY/WX    TMP DP  RH WIND       PRES   REMARKS
TULSA          CLOUDY    88  74  63 W14       29.94R THUNDER HX  96
PONCA CITY     MOCLDY    84  71  65 N9        29.97S
MCALESTER      CLEAR     80  74  81 S5        29.97R
OKLAHOMA CITY  MOCLDY    86  62  44 NW7       29.98R

......IOWA............

CITY           SKY/WX    TMP DP  RH WIND       PRES   REMARKS
DES MOINES     PTCLDY    79  63  57 W5        29.94S
QUAD CITIES    CLOUDY    72  66  81 SW3       29.92R

......ILLINOIS........

CITY           SKY/WX    TMP DP  RH WIND       PRES   REMARKS
QUINCY         PTCLDY    78  69  73 CALM      29.94S
CHICAGO        MOCLDY    78  64  61 W12       29.87F



USA.gov is the U.S. government's official web portal to all federal, state and local government web resources and services.